小惑星A/2019 G4

A/2019 G4

English version
Home page
Updated on February 19, 2020

---------------------------------------------------------------------

・ プロフィール

発見日 2019年4月9日
発見光度 21.4等
発見者 Pan-STARRS 1 telescope (Haleakala)

・ 軌道要素

Epoch 2018 Aug. 30.0 TT = JDT 2458360.5
T 2018 Sept. 15.17367 TT                                Bell
q   5.8580655            (2000.0)            P               Q
z  +0.0000612      Peri.  287.83580     -0.74011238     -0.44376495
 +/-0.0000052      Node   130.47574     +0.04149143     +0.71979746
e   0.9996413      Incl.  138.37557     -0.67120200     +0.53382046
H   13.0
From 24 observations 2019 Apr. 9-2020 Jan. 30, mean residual 0".3.

・ 光度変化

        H = 13.0  G = 0.15

---------------------------------------------------------------------

軌道要素はM.P.E.C. 2020-C98に掲載されたものです。
光度グラフはComet for Windowsで作成したものです。

---------------------------------------------------------------------

Copyright(C) Seiichi Yoshida (comet@aerith.net). All rights reserved.